Marianna, FL

5:24 PM CDT on May 29, 2017 (GMT -0500)
Marianna Municipal

Weather History for KMAI - October, 2014

Change the Weather History Date:

Monday, October 13, 2014

  Actual Average Record
Temperature  
Mean Temperature 78 °F 69 °F  
Max Temperature 85 °F 81 °F 88 °F (1997)
Min Temperature 71 °F 58 °F 42 °F (2000)
Degree Days  
Heating Degree Days 0    
Month to date heating degree days 7  
Since 1 July heating degree days 7  
Cooling Degree Days 13    
Month to date cooling degree days 115  
Year to date cooling degree days 2562  
Growing Degree Days 27 (Base 50)    
Moisture  
Dew Point 73 °F    
Average Humidity 83    
Maximum Humidity 100    
Minimum Humidity 65    
Precipitation  
Precipitation 0.61 in 0.10 in 1.00 in (2002)
Month to date precipitation 0.77 1.32  
Year to date precipitation 48.52 43.45  
Sea Level Pressure  
Sea Level Pressure 29.98 in    
Wind  
Wind Speed 7 mph (SE)    
Max Wind Speed 21 mph    
Max Gust Speed 31 mph    
Visibility 9 miles    
Events Rain , Thunderstorm    
T = Trace of Precipitation, MM = Missing Value Source: NWS Daily Summary

Daily Weather History Graph

Daily Weather History Graph

Search for Another Location

Airport or City:

Trip Planner

Search our weather history database for the weather conditions in past years. The results will help you decide how hot, cold, wet, or windy it might be!

Date:

Astronomy

Oct. 13, 2014 Rise Set
Actual Time 6:41 AM CDT 6:11 PM CDT
Civil Twilight 6:17 AM CDT 6:35 PM CDT
Nautical Twilight 5:49 AM CDT 7:03 PM CDT
Astronomical Twilight 5:21 AM CDT 7:31 PM CDT
Moon 10:34 PM CDT (10/13) 11:42 AM CDT (10/13)
Length of Visible Light 12h 18m
Length of Day
11h 29m
Waning Gibbous, 70% of the Moon is Illuminated
Oct 13
Waning Gibbous
Oct 15
Last Quarter
Oct 23
New
Oct 30
First Quarter
Nov 6
Full

Hourly Weather History & Observations

Time (CDT) Temp. Heat Index Dew Point Humidity Pressure Visibility Wind Dir Wind Speed Gust Speed Precip Events Conditions
12:53 AM 70.0 °F - 70.0 °F 100% 30.05 in 10.0 mi Calm Calm - N/A   Clear
1:53 AM 71.1 °F - 71.1 °F 100% 30.05 in 10.0 mi Calm Calm - N/A   Clear
2:53 AM 72.0 °F - 72.0 °F 100% 30.03 in 10.0 mi ESE 4.6 mph - N/A   Clear
3:53 AM 71.1 °F - 71.1 °F 100% 30.03 in 10.0 mi ESE 4.6 mph - N/A   Clear
4:53 AM 71.1 °F - 71.1 °F 100% 30.02 in 10.0 mi ESE 4.6 mph - N/A   Clear
5:53 AM 71.1 °F - 71.1 °F 100% 30.01 in 10.0 mi East 5.8 mph - N/A   Clear
6:53 AM 71.1 °F - 71.1 °F 100% 30.04 in 10.0 mi ESE 5.8 mph - N/A   Clear
7:53 AM 73.0 °F - 73.0 °F 100% 30.04 in 10.0 mi Variable 5.8 mph - N/A   Clear
8:53 AM 78.1 °F - 73.9 °F 87% 30.04 in 10.0 mi SE 8.1 mph - N/A   Clear
9:53 AM 82.0 °F 87.4 °F 73.0 °F 74% 30.04 in 10.0 mi Variable 6.9 mph 19.6 mph N/A   Partly Cloudy
10:53 AM 84.9 °F 90.7 °F 72.0 °F 65% 30.05 in 10.0 mi SSE 13.8 mph 23.0 mph N/A   Mostly Cloudy
11:53 AM 82.9 °F 88.0 °F 72.0 °F 69% 30.04 in 10.0 mi SSE 10.4 mph - N/A   Mostly Cloudy
12:53 PM 81.0 °F 85.8 °F 73.0 °F 77% 30.03 in 10.0 mi SSE 6.9 mph - N/A   Clear
1:53 PM 79.0 °F - 73.9 °F 84% 29.99 in 10.0 mi SSE 5.8 mph - 0.00 in Rain , Thunderstorm Light Thunderstorms and Rain
2:14 PM 75.9 °F - 75.0 °F 97% 29.98 in 7.0 mi Variable 4.6 mph - 0.04 in Rain , Thunderstorm Rain
2:33 PM 75.9 °F - 75.9 °F 100% 29.97 in 10.0 mi South 4.6 mph - 0.05 in   Overcast
2:53 PM 75.9 °F - 75.0 °F 97% 29.96 in 10.0 mi SE 6.9 mph - 0.05 in   Mostly Cloudy
3:53 PM 79.0 °F - 75.9 °F 90% 29.96 in 10.0 mi SE 9.2 mph - N/A   Mostly Cloudy
4:19 PM 79.0 °F - 75.9 °F 90% 29.96 in 10.0 mi SSE 9.2 mph - 0.00 in Rain Light Rain
4:35 PM 77.0 °F - 75.9 °F 96% 29.95 in 7.0 mi SSE 8.1 mph - 0.02 in Rain Light Rain
4:53 PM 75.9 °F - 75.9 °F 100% 29.95 in 6.0 mi SSE 6.9 mph - 0.06 in Rain Rain
5:53 PM 75.0 °F - 75.0 °F 100% 29.95 in 8.0 mi SSE 5.8 mph - 0.01 in Rain Light Rain
6:53 PM 75.0 °F - 75.0 °F 100% 29.94 in 5.0 mi Variable 3.5 mph - 0.05 in Rain Rain
7:53 PM 73.9 °F - 73.9 °F 100% 29.95 in 10.0 mi SE 8.1 mph - 0.09 in Rain Light Rain
8:03 PM 75.0 °F - 73.9 °F 96% 29.95 in 10.0 mi SE 5.8 mph - 0.00 in Thunderstorm Thunderstorm
8:24 PM 73.9 °F - 73.9 °F 100% 29.95 in 10.0 mi Variable 3.5 mph - 0.00 in   Scattered Clouds
8:53 PM 73.9 °F - 73.9 °F 100% 29.94 in 10.0 mi ESE 4.6 mph - 0.00 in   Mostly Cloudy
9:41 PM 73.9 °F - 73.9 °F 100% 29.95 in 10.0 mi SSE 8.1 mph - 0.03 in Rain , Thunderstorm Light Rain
9:53 PM 75.0 °F - 73.9 °F 96% 29.94 in 10.0 mi SSE 10.4 mph 18.4 mph 0.03 in   Mostly Cloudy
10:35 PM 73.9 °F - 73.9 °F 100% 29.94 in 3.0 mi SSE 15.0 mph 26.5 mph 0.18 in Rain , Thunderstorm Heavy Rain
10:53 PM 73.0 °F - 73.0 °F 100% 29.92 in 4.0 mi SE 9.2 mph 20.7 mph 0.31 in Rain , Thunderstorm Light Rain
11:10 PM 73.9 °F - 73.9 °F 100% 29.91 in 10.0 mi SE 9.2 mph - 0.00 in   Overcast
11:53 PM 73.0 °F - 73.0 °F 100% 29.91 in 10.0 mi SSE 9.2 mph 26.5 mph 0.01 in Rain Light Rain